Theta_e
337 335 334 331 330 329 331 333 335 336 336 336 337 337 335 334 335 335 333 333 333 334
335 335 332 331 330 330 333 335 333 333 332 333 333 334 337 336 336 334 332 333 333 332
335 334 332 331 330 331 331 331 332 330 329 330 329 329 328 330 332 334 336 334 334 331
335 333 332 331 331 331 330 329 330 328 328 327 326 325 324 325 326 326 329 332 334 334
335 332 330 329 332 330 329 329 327 327 327 326 325 324 323 325 325 324 324 326 330 329
333 331 329 329 330 330 329 327 326 325 325 325 324 322 321 319 319 318 319 323 326 327
331 331 330 330 330 329 327 325 323 321 321 322 324 322 320 318 316 316 317 319 322 323
331 331 330 329 330 327 325 323 322 319 317 318 320 323 318 317 315 314 314 314 316 319
332 331 330 329 328 325 323 321 319 316 314 314 318 319 323 320 316 316 313 310 309 311
334 332 330 329 327 323 321 319 316 313 312 311 313 316 317 320 316 312 310 309 307 308
335 334 332 330 329 324 320 318 316 312 310 309 309 313 313 315 311 310 309 308 308 306
337 334 332 330 328 327 321 320 317 314 309 308 307 308 311 310 306 305 304 305 306 308
337 335 332 329 328 326 324 321 317 313 310 310 308 305 309 309 306 304 303 302 301 308
327 334 333 330 330 326 321 316 312 309 308 307 306 306 306 308 308 306 304 302 299 298
Wind_Speed
4 3 4 3 2 2 1 3 5 6 6 6 5 6 5 3 2 2 3 5 4 4
5 6 4 3 3 1 3 4 5 5 5 6 8 8 5 5 5 4 3 4 3 2
6 6 5 3 3 4 5 5 4 6 5 7 7 7 7 6 7 7 6 4 4 2
6 5 5 4 4 4 6 5 6 6 7 7 7 7 7 7 8 8 6 6 5 5
5 5 5 3 5 5 7 5 6 5 7 7 7 7 7 9 8 7 7 7 8 8
4 5 4 4 5 5 6 6 5 6 7 7 7 7 7 7 6 7 7 7 8 7
5 6 5 5 6 6 5 5 6 6 6 7 6 6 6 6 6 7 7 7 8 8
6 5 5 4 5 6 5 5 5 5 7 6 5 3 5 6 6 6 7 7 7 8
6 4 5 6 6 5 6 5 6 6 6 6 3 3 7 6 5 6 6 6 6 6
4 3 1 2 5 6 6 6 6 6 6 6 5 9 9 8 5 5 6 6 6 5
4 3 4 5 5 5 5 5 6 6 6 6 5 8 8 10 6 6 6 6 5 5
10 11 11 9 6 4 6 5 5 5 6 6 5 5 7 7 5 5 5 4 5 4
6 11 9 7 6 2 4 6 5 6 5 5 4 7 5 6 4 5 3 4 5 9
2 9 11 8 4 5 7 7 6 6 5 5 5 6 4 7 3 4 3 3 3 4
Wind_Direction
113 101 93 97 85 30 12 25 6 15 2 358 13 26 19 31 9 239 226 180 172 182
130 117 120 114 81 51 58 50 31 38 11 12 25 25 18 38 40 54 59 99 141 171
130 130 131 125 81 79 67 52 45 46 29 23 24 16 36 30 20 49 39 45 84 105
129 129 127 131 115 84 71 55 57 43 46 34 24 15 36 38 32 39 35 33 41 44
144 137 139 143 114 99 85 63 70 56 58 42 25 18 36 57 39 47 38 20 43 42
151 148 156 121 102 86 88 76 62 61 61 54 37 27 30 40 40 41 37 29 37 33
174 165 167 136 113 99 93 92 70 60 61 56 52 48 41 45 43 46 43 37 37 36
179 168 141 122 106 107 97 85 78 69 57 52 55 53 78 66 59 58 51 36 32 41
155 160 154 141 130 122 110 106 94 65 60 44 26 349 105 93 76 52 52 49 37 36
140 137 95 129 132 136 135 127 106 88 75 53 32 34 79 91 75 71 53 47 39 43
88 110 201 191 151 152 145 140 129 110 89 78 45 44 73 85 77 65 50 45 41 52
172 199 199 182 168 189 137 140 125 114 96 83 57 39 119 102 93 86 73 48 41 54
198 191 197 175 165 163 128 123 117 104 95 85 68 26 167 125 117 99 81 41 38 43
236 200 184 170 158 130 125 112 101 97 83 74 38 39 64 153 131 136 107 68 33 21